Regional Weather Roundup
Issued by NWS Sterling, VA

Home | Current Version | Previous Version | Text Only | Print | Product List | Glossary On
Versions: 1 2 3 4 5 6 7 8 9 10 11 12 13 14 15 16 17 18 19 20 21 22 23 24 25 26 27 28
000
ASUS41 KLWX 040910
RWRLWX

REGIONAL WEATHER ROUNDUP
NATIONAL WEATHER SERVICE BALTIMORE MD/WASHINGTON DC
400 AM EST SUN DEC 04 2016

Note: "FAIR" indicates few or no clouds below 12,000 feet
with no significant weather and/or obstructions to visibility.
 TC=TEMPERATURE CELSIUS

 * =Non NWS site. Station does not report precipitation (e.g. rain,
    snow, etc.), thunder, or fog.

DCZ001-MDZ009-015-VAZ040>042-051-053>054-041000-
WASHINGTON METRO

CITY           SKY/WX    TMP DP  RH WIND       PRES   REMARKS
WASHINGTON NAT CLOUDY    40  27  59 NW13      30.27F
DULLES         CLOUDY    33  25  72 CALM      30.27F
ANDREWS AFB    CLOUDY    38  27  64 NW9       30.25F
FT BELVOIR     CLOUDY    32  27  83 W3        30.27F
QUANTICO       CLOUDY    35  26  69 NW10      30.29F WCI  27
COLLEGE PARK*  CLOUDY    36  28  75 NW5       30.26F
LEESBURG*      PTCLDY    37  32  81 NW10      30.27F
MANASSAS*      CLOUDY    28  28 100 CALM      30.29S
GAITHERSBURG*  CLEAR     30  21  69 NW5       30.30F

$$

MDZ006>007-011-014-041000-
BALTIMORE METRO

CITY           SKY/WX    TMP DP  RH WIND       PRES   REMARKS
BWI AIRPORT    CLOUDY    38  29  70 NW9       30.25F
MD SCIENCE CTR   N/A     41  27  57 MISG      30.26S
ANNAPOLIS      PTCLDY    40  29  64 W5        30.25F
FORT MEADE*    CLOUDY    32  28  86 W5        30.29F

$$

MDZ012-015-019>023-041000-
MARYLAND EASTERN SHORE

CITY           SKY/WX    TMP DP  RH WIND       PRES   REMARKS
OCEAN CITY     CLEAR     36  30  79 NW5       30.24F
SALISBURY      CLOUDY    34  29  82 CALM      30.24F
BAY BRIDGE AP* PTCLDY    41  30  65 NW12      30.25F
CAMBRIDGE*     CLEAR     39  32  75 NW8       30.24F
EASTON*        CLEAR     40  31  69 NW5       30.28F

$$

MDZ017>025-041000-
SOUTHERN MARYLAND

CITY           SKY/WX    TMP DP  RH WIND       PRES   REMARKS
PATUXENT RIVER CLOUDY    38  28  67 W8        30.25F
ST INIGOES     CLOUDY    39  29  67 CALM      30.26F
LEONARDTOWN*   CLOUDY    36  28  75 W5        30.27F

$$

MDZ003>005-041000-
NORTH CENTRAL MARYLAND

CITY           SKY/WX    TMP DP  RH WIND       PRES   REMARKS
FREDERICK*     PTCLDY    36  30  80 SW5       30.29F
HAGERSTOWN APT CLOUDY    36  26  67 W5        30.25F
WESTMINSTER*   PTCLDY    34  28  80 W6        30.23F

$$

MDZ501>502-041000-
WESTERN MARYLAND

CITY           SKY/WX    TMP DP  RH WIND       PRES   REMARKS
OAKLAND*       PTCLDY    27  23  86 CALM      30.18F
CUMBERLAND*    NOT AVBL

$$

VAZ025>031-041000-
SHENANDOAH VALLEY

CITY           SKY/WX    TMP DP  RH WIND       PRES   REMARKS
WINCHESTER*    CLOUDY    32  27  80 CALM      30.27S
FRONT ROYAL*   FAIR      32  28  86 S6        30.27F
LURAY*         FAIR      30  30 100 SW7       30.28S
NEW MARKET*    FAIR      27  25  90 CALM      30.28R
STAUNTON*      CLOUDY    29  26  87 CALM      30.28S
WAYNESBORO*    FAIR      28  25  88 CALM      30.25F

$$

WVZ021-048>050-054>055-041000-
EASTERN WEST VIRGINIA PANHANDLE

CITY           SKY/WX    TMP DP  RH WIND       PRES   REMARKS
MARTINSBURG    CLOUDY    35  26  69 W7        30.27S
PETERSBURG*    CLOUDY    31  28  90 CALM      30.29F

$$

VAZ036>039-050-041000-
CENTRAL FOOTHILLS

CITY           SKY/WX    TMP DP  RH WIND       PRES   REMARKS
CHARLOTTESVILL PTCLDY    33  26  75 W3        30.28S
CULPEPER*      CLOUDY    34  28  76 CALM      30.30R
ORANGE*          N/A     34  28  80 CALM      30.31R
GORDONSVILLE*  FAIR      29  28  97 CALM      30.29R
WARRENTON*     FAIR      28  23  81 CALM      30.27S

$$

VAZ055>057-041000-
NORTH AND CENTRAL PIEDMONT

CITY           SKY/WX    TMP DP  RH WIND       PRES   REMARKS
FREDERICKSBRG* MOCLDY    34  30  86 CALM      30.28S
STAFFORD*      PTCLDY    29  28  98 CALM      30.33S

$$

NCZ024-NYZ072-PAZ021-071-VAZ022-071-041000-
OTHER REGIONAL OBSERVATIONS

CITY           SKY/WX    TMP DP  RH WIND       PRES   REMARKS
NEW YORK CITY  CLOUDY    41  23  48 NW7       30.21F
PHILADELPHIA   CLOUDY    44  24  45 N8        30.23S
PITTSBURGH     CLOUDY    35  28  75 CALM      30.25F
ROANOKE        CLOUDY    37  29  72 CALM      30.28R
RICHMOND       PTCLDY    34  28  79 NW6       30.28
RALEIGH        CLOUDY    43  30  60 NE3       30.26F

$$

ANZ530>537-041000-
MARINE OBSERVATIONS

STATION/POSITION TIME  TEMP    WIND        PRES
                       AIR SEA DIR/SP/G
                 (UTC) (F)     (DEG/KT/KT) (MB)
THOMAS PT LIGHT  0900   40 49  300/ 12/ 14   N/A
BALT KEY BRIDGE  0842   41     280/ 11/ 13 1024.6F
COVE POINT       0842   41     330/ 10/ 15 1025.1F
LEWISETTA        0842   41 49  310/  6/  9 1024.5F
SOLOMONS ISLAND  0842   41 51  310/  6/ 10   N/A
PINEY POINT      0848          350/ 15/ 17   N/A

$$





USA.gov is the U.S. government's official web portal to all federal, state and local government web resources and services.